GW0870 Weather Reports


time (UTC)temp
C
wind
direction
speed
KPH
gust
KPH
rain 1hr
cm
rain 24hr
cm
rain mn
cm
humidity
%
barometer
mb
20260505083043 13 0 0.0 1.6 0.00 0.00 0.00 73 1015.1
20260505081547 13 0 0.0 4.8 0.00 0.00 0.00 72 1015.0
20260505080050 13 0 0.0 4.8 0.00 0.00 0.00 71 1014.9
20260505074548 13 152 0.0 3.2 0.00 0.00 0.00 71 1014.9
20260505073055 13 0 0.0 1.6 0.00 0.00 0.00 71 1014.9
20260505071544 13 0 0.0 1.6 0.00 0.00 0.00 70 1014.8
20260505070051 13 0 0.0 3.2 0.00 0.00 0.00 69 1014.7
20260505064548 13 0 0.0 0.0 0.00 0.00 0.00 69 1014.5
20260505063048 14 0 0.0 1.6 0.00 0.00 0.00 67 1014.6
20260505061547 15 0 0.0 1.6 0.00 0.00 0.00 64 1014.8
20260505060050 15 222 0.0 4.8 0.00 0.00 0.00 62 1014.9
20260505054547 15 0 0.0 3.2 0.00 0.00 0.00 62 1014.9
20260505053052 14 223 0.0 4.8 0.00 0.00 0.00 62 1014.8
20260505051541 13 0 0.0 1.6 0.00 0.00 0.00 65 1015.0
20260505050122 12 204 0.0 4.8 0.00 0.00 0.00 68 1015.0
20260505041601 13 0 0.0 0.0 0.00 0.00 0.00 61 1015.0
20260505040057 13 0 0.0 0.0 0.00 0.00 0.00 61 1015.1
20260505034548 12 0 0.0 0.0 0.00 0.00 0.00 63 1015.0
20260505033049 12 0 0.0 0.0 0.00 0.00 0.00 66 1015.1
20260505031547 13 0 0.0 1.6 0.00 0.00 0.00 66 1015.0
20260505030048 13 0 0.0 1.6 0.00 0.00 0.00 64 1015.2
20260505024549 13 0 0.0 0.0 0.00 0.00 0.00 62 1015.2
20260505023052 14 0 0.0 0.0 0.00 0.00 0.00 60 1015.2
20260505021549 15 0 0.0 0.0 0.00 0.00 0.00 58 1015.0
20260505020045 15 0 0.0 0.0 0.00 0.00 0.00 54 1014.9
20260505014601 16 0 0.0 0.0 0.00 0.00 0.00 50 1014.8
20260505013044 17 0 0.0 1.6 0.00 0.00 0.00 48 1014.6
20260505011541 16 0 0.0 1.6 0.00 0.00 0.00 52 1014.3
20260505010049 17 0 0.0 1.6 0.00 0.00 0.00 49 1014.2
20260505004549 17 0 0.0 0.0 0.00 0.00 0.00 47 1014.1
20260505003045 19 0 0.0 0.0 0.00 0.00 0.00 43 1013.9
20260505001602 20 0 0.0 0.0 0.00 0.00 0.00 39 1013.8
20260505000115 22 0 0.0 0.0 0.00 0.00 0.00 35 1013.8
20260504234606 23 204 0.0 6.4 0.00 0.00 0.00 31 1013.5
20260504233040 23 162 0.0 4.8 0.00 0.00 0.00 29 1013.3
20260504231546 24 199 4.8 14.5 0.00 0.00 0.00 28 1013.3
20260504230047 24 146 3.2 12.9 0.00 0.00 0.00 27 1013.1
20260504224603 25 266 3.2 12.9 0.00 0.00 0.00 27 1013.1
20260504223044 25 227 4.8 12.9 0.00 0.00 0.00 24 1013.1
20260504221540 26 250 3.2 8.0 0.00 0.00 0.00 23 1013.2
20260504220050 26 247 3.2 11.3 0.00 0.00 0.00 23 1013.2
20260504214546 26 239 4.8 12.9 0.00 0.00 0.00 24 1013.2
20260504213101 26 148 4.8 9.7 0.00 0.00 0.00 25 1013.4
20260504211542 26 234 1.6 11.3 0.00 0.00 0.00 26 1013.3
20260504210041 26 186 3.2 12.9 0.00 0.00 0.00 26 1013.3
20260504204539 26 297 3.2 11.3 0.00 0.00 0.00 29 1013.5
20260504203102 26 153 4.8 14.5 0.00 0.00 0.00 27 1013.8
20260504201543 25 248 4.8 12.9 0.00 0.00 0.00 28 1014.0
20260504200046 26 121 1.6 8.0 0.00 0.00 0.00 27 1014.1
20260504194556 25 238 9.7 19.3 0.00 0.00 0.00 25 1014.3
20260504193051 26 205 1.6 6.4 0.00 0.00 0.00 26 1014.3
20260504191547 26 209 3.2 12.9 0.00 0.00 0.00 27 1014.5
20260504190058 26 272 1.6 8.0 0.00 0.00 0.00 26 1014.7
20260504184558 26 236 1.6 11.3 0.00 0.00 0.00 25 1015.0
20260504183042 26 231 1.6 8.0 0.00 0.00 0.00 26 1015.2
20260504181542 25 228 4.8 12.9 0.00 0.00 0.00 27 1015.4
20260504180053 24 153 1.6 12.9 0.00 0.00 0.00 28 1015.4
20260504174551 24 76 0.0 9.7 0.00 0.00 0.00 28 1015.3
20260504173049 24 260 1.6 12.9 0.00 0.00 0.00 28 1015.6
20260504171551 23 173 4.8 11.3 0.00 0.00 0.00 30 1015.8